This is the latest recevied weather packets stored in our database for station/object KE4AMH. If no packets are shown the sender has not sent any weather packets the latest 10 day(s).
| Time | Temp. | Humidity | Pressure | Rain* | Wind** | Luminosity | Snow |
|---|---|---|---|---|---|---|---|
| 1777585800 | 23.89° C | 63% | 1009.1 hPa | 0 mm | - | 77 W/m² | - |
| 1777585500 | 23.89° C | 63% | 1009.2 hPa | 0 mm | - | 77 W/m² | - |
| 1777585196 | 23.33° C | 63% | 1009.1 hPa | 0 mm | - | 99 W/m² | - |
| 1777584891 | 23.89° C | 64% | 1009 hPa | 0 mm | - | 104 W/m² | - |
| 1777584589 | 23.89° C | 61% | 1009 hPa | 0 mm | - | 104 W/m² | - |
| 1777584286 | 23.89° C | 60% | 1009 hPa | 0 mm | - | 93 W/m² | - |
| 1777583981 | 23.89° C | 62% | 1008.9 hPa | 0 mm | - | 103 W/m² | - |
| 1777583676 | 23.89° C | 62% | 1009 hPa | 0 mm | - | 109 W/m² | - |
| 1777583375 | 23.89° C | 61% | 1008.9 hPa | 0 mm | - | 119 W/m² | - |
| 1777583075 | 24.44° C | 60% | 1009 hPa | 0 mm | - | 102 W/m² | - |
| 1777582772 | 23.89° C | 63% | 1009 hPa | 0 mm | - | 157 W/m² | - |
| 1777582467 | 23.89° C | 62% | 1009 hPa | 0 mm | - | 144 W/m² | - |
| 1777582162 | 23.89° C | 62% | 1009.2 hPa | 0 mm | - | 160 W/m² | - |
| 1777581860 | 23.89° C | 64% | 1009.1 hPa | 0 mm | - | 153 W/m² | - |
| 1777581555 | 23.33° C | 63% | 1009.1 hPa | 0 mm | - | 166 W/m² | - |
| 1777581250 | 23.89° C | 65% | 1009.3 hPa | 0 mm | - | 159 W/m² | - |
| 1777580945 | 23.89° C | 65% | 1009.3 hPa | 0 mm | - | 163 W/m² | - |
| 1777580640 | 23.89° C | 67% | 1009.3 hPa | 0 mm | - | 159 W/m² | - |
| 1777580335 | 23.89° C | 64% | 1009.4 hPa | 0 mm | - | 155 W/m² | - |
| 1777580032 | 23.89° C | 64% | 1009.3 hPa | 0 mm | - | 199 W/m² | - |
| 1777579728 | 23.89° C | 63% | 1009.4 hPa | 0 mm | - | 239 W/m² | - |
| 1777579426 | 23.89° C | 66% | 1009.5 hPa | 0 mm | - | 225 W/m² | - |
| 1777579122 | 23.89° C | 64% | 1009.5 hPa | 0 mm | - | 339 W/m² | - |
| 1777578821 | 23.89° C | 66% | 1009.5 hPa | 0 mm | - | 207 W/m² | - |
| 1777578517 | 23.33° C | 67% | 1009.6 hPa | 0 mm | - | 322 W/m² | - |
* Rain latest hour (hover to see other rain measurements)
** Current wind speed in m/s (hover to see current wind gust speed)